Location: Unspecified
(38.9820°N, 94.4650°W)
Time: 18:37:47
(UTC-06:00)

CZ-3 Stage 3 - Visible Passes

Search period start: 20 February 2017 00:00
Search period end: 02 March 2017 00:00
Orbit: 413 x 34788 km, 30.6° (Epoch: 19 February)

Date Brightness Start Highest point End Pass type
(mag) Time Alt. Az. Time Alt. Az. Time Alt. Az.
20 Feb 8.8 03:52:40 10° W 05:47:10 30° W 10:41:32 10° WNW visible
20 Feb 7.9 23:48:54 10° SW 02:23:19 74° SW 09:12:43 10° S visible
21 Feb 7.3 20:12:50 10° S 03:08:46 65° ESE 05:33:45 10° ESE visible
22 Feb 9.5 20:12:56 10° ENE 23:35:22 21° ENE 01:13:32 10° E visible
23 Feb 8.8 03:43:35 10° W 05:37:56 30° W 10:29:14 10° WNW visible
23 Feb 7.9 23:40:00 10° SW 02:12:30 74° SW 09:03:37 10° S visible
24 Feb 7.3 20:03:43 10° S 02:58:43 65° ESE 05:24:48 10° ESE visible
25 Feb 9.4 20:04:14 10° ENE 23:26:17 21° ENE 01:04:05 10° E visible
26 Feb 8.8 03:34:28 10° W 05:28:37 30° W 10:16:57 10° WNW visible
26 Feb 7.9 23:31:04 10° WSW 02:01:42 75° SW 08:54:28 10° S visible
27 Feb 7.2 19:54:35 10° S 02:48:36 65° ESE 05:15:50 10° SE visible
28 Feb 9.3 19:55:51 10° ENE 23:17:13 20° ENE 00:54:35 10° E visible
01 Mar 8.8 03:25:19 10° W 05:19:13 30° W 10:04:39 10° WNW visible
